TimeAKDT,TemperatureF,Dew PointF,Humidity,Sea Level PressureIn,VisibilityMPH,Wind Direction,Wind SpeedMPH,Gust SpeedMPH,PrecipitationIn,Events,Conditions,WindDirDegrees,DateUTC
12:53 AM,19.9,12.9,74,30.47,10.0,North,17.3,-,N/A,,Clear,10,2012-10-24 08:53:00
1:53 AM,19.9,12.9,74,30.45,10.0,NNE,19.6,26.5,N/A,,Clear,30,2012-10-24 09:53:00
2:53 AM,19.0,12.0,74,30.45,10.0,NNE,15.0,-,N/A,,Clear,20,2012-10-24 10:53:00
3:53 AM,19.0,12.0,74,30.45,10.0,NNE,17.3,-,N/A,,Clear,30,2012-10-24 11:53:00
4:53 AM,19.0,12.0,74,30.46,10.0,NNE,17.3,-,N/A,,Clear,20,2012-10-24 12:53:00
5:53 AM,18.0,10.9,74,30.48,10.0,NNE,17.3,26.5,N/A,,Clear,20,2012-10-24 13:53:00
6:53 AM,18.0,10.9,74,30.46,10.0,NNE,18.4,-,N/A,,Clear,30,2012-10-24 14:53:00
7:53 AM,17.1,10.0,74,30.46,10.0,NNE,19.6,-,N/A,,Clear,20,2012-10-24 15:53:00
8:53 AM,17.1,10.0,74,30.46,10.0,NNE,19.6,26.5,N/A,,Clear,20,2012-10-24 16:53:00
9:53 AM,16.0,10.0,77,30.46,10.0,NNE,18.4,27.6,N/A,,Scattered Clouds,30,2012-10-24 17:53:00
10:53 AM,17.1,10.0,74,30.47,10.0,NNE,15.0,-,N/A,,Partly Cloudy,20,2012-10-24 18:53:00
11:53 AM,19.0,10.0,68,30.46,10.0,NNE,23.0,31.1,0.00,Snow,Light Snow,30,2012-10-24 19:53:00
12:53 PM,21.0,10.9,65,30.45,10.0,NNE,23.0,-,N/A,,Scattered Clouds,30,2012-10-24 20:53:00
1:53 PM,23.0,12.0,63,30.45,10.0,NNE,23.0,32.2,N/A,,Scattered Clouds,30,2012-10-24 21:53:00
2:53 PM,24.1,12.9,62,30.45,10.0,NNE,23.0,29.9,N/A,,Scattered Clouds,20,2012-10-24 22:53:00
3:53 PM,25.0,12.9,60,30.45,10.0,NNE,21.9,28.8,N/A,,Scattered Clouds,30,2012-10-24 23:53:00
4:53 PM,25.0,12.0,58,30.44,10.0,NNE,24.2,32.2,N/A,,Scattered Clouds,30,2012-10-25 00:53:00
5:53 PM,25.0,12.9,60,30.45,10.0,NNE,20.7,31.1,N/A,,Scattered Clouds,20,2012-10-25 01:53:00
6:53 PM,23.0,12.9,65,30.45,10.0,NNE,19.6,27.6,N/A,,Clear,20,2012-10-25 02:53:00
7:53 PM,21.9,12.0,66,30.45,10.0,NNE,18.4,28.8,N/A,,Clear,20,2012-10-25 03:53:00
8:53 PM,21.0,12.0,68,30.45,10.0,NE,18.4,-,N/A,,Clear,40,2012-10-25 04:53:00
9:53 PM,19.9,12.0,71,30.46,10.0,NNE,13.8,21.9,N/A,,Clear,30,2012-10-25 05:53:00
10:53 PM,19.0,12.0,74,30.47,10.0,NNE,11.5,-,N/A,,Clear,30,2012-10-25 06:53:00
11:53 PM,19.0,12.0,74,30.47,10.0,NNE,12.7,-,N/A,,Clear,30,2012-10-25 07:53:00